1514754000.83,28374,7.44,72998.0,-5.01,-6.97,-6.89,0,*51
1514754002.03,28375,7.44,73002.0,-5.01,-6.89,-6.73,0,*5A
1514754003.24,28376,7.5,73000.5,-5.03,-6.85,-6.69,0,*5C
1514754004.46,28377,7.44,72998.5,-5.01,-7.01,-6.77,0,*5D
1514754005.65,28378,7.44,72992.8,-5.01,-6.89,-6.73,0,*57
1514754006.84,28379,7.5,72998.5,-5.01,-6.89,-6.73,0,*56
1514754008.06,28380,7.44,72996.0,-5.01,-6.97,-6.85,0,*56
1514754009.28,28381,7.44,72992.3,-5.01,-6.97,-6.85,0,*57
1514754010.5,28382,7.44,72994.5,-5.01,-7.01,-6.85,0,*5A
1514754011.71,28383,7.44,72992.0,-5.01,-6.97,-6.85,0,*55
1514754012.91,28384,7.44,72996.8,-5.01,-6.89,-6.85,0,*5D
1514754014.13,28385,7.44,72998.8,-5.01,-6.97,-6.85,0,*53
1514754015.35,28386,7.44,73002.0,-5.01,-6.97,-6.85,0,*50
1514754016.59,28387,7.44,73000.0,-5.03,-7.01,-6.85,0,*5D
1514754017.86,28388,7.5,73002.8,-5.03,-7.01,-6.97,0,*51
1514754019.12,28389,7.44,72996.5,-5.03,-7.01,-7.01,0,*5E
1514754020.34,28390,7.44,72994.3,-5.01,-7.01,-6.85,0,*59
1514754021.58,28391,7.44,72996.3,-5.03,-7.01,-6.89,0,*56
1514754022.83,28392,7.44,72992.8,-5.03,-7.11,-6.97,0,*5B
1514754024.1,28393,7.44,73000.0,-5.03,-7.01,-6.97,0,*5B
1514754025.34,28394,7.44,73006.8,-5.03,-7.01,-6.89,0,*53
1514754026.58,28395,7.44,73004.8,-5.03,-7.01,-6.85,0,*5E
1514754027.83,28396,7.5,73006.8,-5.03,-6.97,-6.85,0,*53
1514754029.05,28397,7.44,73002.8,-5.01,-6.97,-6.73,0,*59
1514754030.27,28398,7.44,73004.5,-5.03,-6.77,-6.77,0,*5E
1514754031.46,28399,7.44,73002.8,-5.01,-6.85,-6.73,0,*54
1514754032.68,28400,7.44,72998.5,-5.03,-6.85,-6.77,0,*55
1514754033.87,28401,7.44,72996.5,-5.01,-6.89,-6.77,0,*5A
1514754035.06,28402,7.44,72998.8,-5.01,-6.85,-6.69,0,*5A
1514754036.27,28403,7.44,72998.5,-5.03,-6.85,-6.69,0,*59
1514754037.46,28404,7.44,72996.5,-5.01,-6.85,-6.73,0,*57
1514754038.65,28405,7.5,72996.5,-5.01,-6.85,-6.69,0,*5D
1514754039.87,28406,7.44,72998.5,-5.03,-6.89,-6.73,0,*5B
1514754041.06,28407,7.5,73008.0,-5.01,-6.89,-6.73,0,*58
1514754042.28,28408,7.5,73008.3,-5.03,-6.85,-6.77,0,*5D
1514754043.47,28409,7.44,73006.8,-5.01,-6.89,-6.77,0,*52
1514754044.72,28410,7.44,73002.5,-5.03,-6.97,-6.89,0,*56
1514754045.93,28411,7.44,73006.5,-5.03,-6.89,-6.73,0,*5D
1514754047.13,28412,7.44,73004.0,-5.01,-6.89,-6.77,0,*58
1514754048.32,28413,7.5,73004.8,-5.01,-6.85,-6.77,0,*55
1514754049.51,28414,7.44,72998.5,-5.01,-6.89,-6.77,0,*5E
1514754050.73,28415,7.44,73002.8,-5.01,-6.97,-6.77,0,*50
1514754051.92,28416,7.44,73000.0,-5.01,-6.89,-6.77,0,*5C
1514754053.12,28417,7.44,73000.5,-5.01,-6.85,-6.73,0,*55
1514754054.3,28418,7.44,72996.8,-5.01,-6.89,-6.69,0,*5D
1514754055.52,28419,7.5,72998.0,-5.03,-6.89,-6.77,0,*51
1514754056.74,28420,7.44,72996.5,-5.03,-6.89,-6.73,0,*5F
1514754057.93,28421,7.44,73002.8,-5.01,-6.89,-6.85,0,*55
1514754059.15,28422,7.44,73000.3,-5.03,-6.89,-6.77,0,*59
1514754060.37,28423,7.44,73002.5,-5.03,-6.85,-6.73,0,*50
1514754061.61,28424,7.44,73006.8,-5.03,-6.97,-6.77,0,*50
1514754062.8,28425,7.44,73004.3,-5.01,-6.89,-6.77,0,*5C
1514754064.0,28426,7.44,73006.5,-5.01,-6.85,-6.77,0,*53
1514754065.24,28427,7.44,73000.8,-5.03,-6.97,-6.77,0,*53
1514754066.46,28428,7.5,72996.0,-5.01,-7.01,-6.89,0,*51
1514754067.7,28429,7.44,72996.5,-5.03,-7.01,-6.85,0,*5E
1514754068.92,28430,7.44,73004.0,-5.01,-7.01,-6.89,0,*58
1514754070.14,28431,7.5,73008.8,-5.01,-6.97,-6.89,0,*57
1514754071.38,28432,7.44,73000.0,-5.03,-7.01,-6.89,0,*58
1514754072.63,28433,7.44,72994.8,-5.03,-7.11,-6.97,0,*57
1514754073.88,28434,7.5,72998.3,-5.03,-7.11,-6.97,0,*50
1514754075.1,28435,7.44,72998.0,-5.03,-7.11,-6.85,0,*52
1514754076.37,28436,7.44,72994.3,-5.03,-7.01,-6.97,0,*53
1514754077.61,28437,7.5,72994.0,-5.03,-7.15,-7.01,0,*59
1514754078.84,28438,7.5,72990.8,-5.03,-7.15,-7.11,0,*57
1514754080.06,28439,7.44,72990.0,-5.05,-7.27,-7.15,0,*55
1514754081.28,28440,7.44,72994.0,-5.05,-7.27,-7.19,0,*57
1514754082.53,28441,7.5,72998.0,-5.03,-7.27,-7.11,0,*58
1514754083.77,28442,7.44,72988.5,-5.03,-7.27,-7.15,0,*5F
1514754085.02,28443,7.44,72996.8,-5.05,-7.43,-7.31,0,*5C
1514754086.26,28444,7.44,72990.8,-5.05,-7.39,-7.31,0,*56
1514754087.51,28445,7.44,72984.8,-5.05,-7.43,-7.39,0,*52
1514754088.78,28446,7.44,72994.5,-5.07,-7.43,-7.39,0,*53
1514754090.05,28447,7.44,72994.8,-5.07,-7.43,-7.39,0,*52
1514754091.32,28448,7.44,73000.3,-5.07,-7.43,-7.39,0,*5D
1514754092.59,28449,7.44,73000.3,-5.07,-7.43,-7.39,0,*5C
1514754093.85,28450,7.44,72988.5,-5.05,-7.43,-7.43,0,*5B
1514754095.1,28451,7.44,72990.8,-5.07,-7.53,-7.43,0,*59
1514754096.34,28452,7.44,73000.8,-5.07,-7.53,-7.43,0,*5A
1514754097.59,28453,7.44,72998.0,-5.07,-7.53,-7.39,0,*56
1514754098.81,28454,7.44,73004.3,-5.09,-7.49,-7.31,0,*5C
1514754100.02,28455,7.44,73000.0,-5.09,-7.49,-7.31,0,*5D
1514754101.27,28456,7.44,72992.3,-5.09,-7.43,-7.35,0,*50
1514754102.49,28457,7.44,72992.0,-5.09,-7.49,-7.35,0,*5B
1514754103.73,28458,7.44,72992.8,-5.11,-7.53,-7.39,0,*5A
1514754104.97,28459,7.44,72996.3,-5.11,-7.53,-7.39,0,*5B
1514754106.21,28460,7.5,73008.3,-5.11,-7.49,-7.39,0,*5A
1514754107.46,28461,7.44,73008.8,-5.11,-7.49,-7.35,0,*57
1514754108.7,28462,7.44,73002.3,-5.11,-7.53,-7.35,0,*5F
1514754109.94,28463,7.44,73004.5,-5.11,-7.49,-7.35,0,*55
1514754111.18,28464,7.44,73006.8,-5.11,-7.49,-7.35,0,*52
1514754112.42,28465,7.44,73006.8,-5.11,-7.49,-7.35,0,*53
1514754113.66,28466,7.44,73016.3,-5.11,-7.49,-7.39,0,*5C
1514754114.91,28467,7.44,73010.8,-5.13,-7.39,-7.35,0,*54
1514754116.13,28468,7.44,73000.5,-5.13,-7.57,-7.49,0,*58
1514754117.33,28469,7.44,72990.0,-5.13,-7.53,-7.49,0,*5D
1514754118.52,28470,7.44,72998.5,-5.13,-7.53,-7.53,0,*5E
1514754119.73,28471,7.44,72994.0,-5.13,-7.49,-7.35,0,*54
1514754120.96,28472,7.44,72988.3,-5.13,-7.35,-7.15,0,*5E
1514754122.2,28473,7.44,72982.5,-5.17,-7.39,-7.31,0,*51
1514754123.42,28474,7.44,72978.3,-5.17,-7.53,-7.31,0,*5A
1514754124.64,28475,7.44,72982.3,-5.13,-7.53,-7.39,0,*57
1514754125.86,28476,7.44,72986.5,-5.13,-7.49,-7.39,0,*5F
1514754127.11,28477,7.5,72988.8,-5.17,-7.57,-7.39,0,*55
1514754128.33,28478,7.44,72984.8,-5.13,-7.49,-7.43,0,*5C
1514754129.55,28479,7.44,72982.8,-5.13,-7.49,-7.35,0,*5C
1514754130.77,28480,7.44,72988.8,-5.17,-7.53,-7.43,0,*54
1514754131.99,28481,7.44,72984.0,-5.17,-7.53,-7.31,0,*50
1514754133.24,28482,7.44,72994.0,-5.17,-7.57,-7.39,0,*5F
1514754134.46,28483,7.44,72996.5,-5.13,-7.53,-7.39,0,*5E
1514754135.72,28484,7.44,72992.8,-5.17,-7.57,-7.43,0,*54
1514754136.97,28485,7.44,72996.0,-5.19,-7.57,-7.49,0,*51
1514754138.22,28486,7.44,73000.5,-5.19,-7.57,-7.49,0,*52
1514754139.5,28487,7.44,73002.5,-5.19,-7.61,-7.43,0,*5C
1514754140.72,28488,7.44,73000.3,-5.17,-7.53,-7.39,0,*51
1514754141.97,28489,7.44,73002.0,-5.17,-7.43,-7.39,0,*51
1514754143.21,28490,7.44,73000.0,-5.17,-7.43,-7.31,0,*51
1514754144.46,28491,7.44,73002.5,-5.13,-7.39,-7.27,0,*5E
1514754145.7,28492,7.44,73002.3,-5.17,-7.43,-7.27,0,*54
1514754146.95,28493,7.44,73000.5,-5.17,-7.43,-7.31,0,*52
1514754148.2,28494,7.44,73002.5,-5.17,-7.43,-7.31,0,*55
1514754149.44,28495,7.44,73004.3,-5.19,-7.49,-7.35,0,*54
1514754150.69,28496,7.44,73000.8,-5.19,-7.49,-7.31,0,*53
1514754151.97,28497,7.44,72998.5,-5.19,-7.57,-7.35,0,*59
1514754153.22,28498,7.44,72998.5,-5.21,-7.57,-7.31,0,*59
1514754154.46,28499,7.44,72994.0,-5.19,-7.49,-7.31,0,*5C
1514754155.71,28500,7.44,73000.0,-5.19,-7.49,-7.31,0,*5D
1514754156.95,28501,7.44,73006.8,-5.19,-7.49,-7.31,0,*5C
1514754158.23,28502,7.44,73004.3,-5.19,-7.43,-7.35,0,*51
1514754159.47,28503,7.44,73002.8,-5.19,-7.49,-7.35,0,*5A
1514754160.72,28504,7.44,73006.3,-5.19,-7.49,-7.31,0,*59
1514754161.94,28505,7.44,73010.0,-5.21,-7.49,-7.31,0,*53
1514754163.21,28506,7.5,73006.8,-5.19,-7.57,-7.35,0,*50
1514754164.49,28507,7.5,73008.0,-5.19,-7.57,-7.35,0,*51
1514754165.75,28508,7.44,73002.8,-5.21,-7.57,-7.35,0,*55
1514754166.99,28509,7.44,72994.5,-5.19,-7.61,-7.49,0,*51
1514754168.25,28510,7.5,73010.0,-5.21,-7.61,-7.43,0,*58
1514754169.53,28511,7.44,73006.0,-5.19,-7.61,-7.43,0,*52
1514754170.81,28512,7.44,73002.8,-5.19,-7.57,-7.43,0,*54
1514754172.03,28513,7.44,73000.0,-5.21,-7.61,-7.49,0,*51
1514754173.29,28514,7.5,72998.0,-5.21,-7.61,-7.57,0,*59
1514754174.51,28515,7.44,73002.8,-5.21,-7.61,-7.49,0,*57
1514754175.74,28516,7.44,73008.0,-5.21,-7.61,-7.49,0,*54
1514754176.99,28517,7.44,72996.3,-5.21,-7.69,-7.57,0,*52
1514754178.21,28518,7.44,73002.5,-5.21,-7.69,-7.49,0,*52
1514754179.46,28519,7.44,72996.5,-5.21,-7.61,-7.43,0,*51
1514754180.69,28520,7.44,72992.5,-5.25,-7.61,-7.53,0,*5E
1514754181.91,28521,7.44,73006.8,-5.25,-7.65,-7.49,0,*50
1514754183.13,28522,7.44,73006.3,-5.25,-7.65,-7.49,0,*53
1514754184.36,28523,7.44,73008.3,-5.25,-7.65,-7.53,0,*59
1514754185.58,28524,7.44,73008.0,-5.25,-7.65,-7.53,0,*5E
1514754186.8,28525,7.44,73014.5,-5.25,-7.61,-7.53,0,*5B
1514754188.03,28526,7.44,73008.3,-5.25,-7.61,-7.49,0,*53
1514754189.25,28527,7.44,73006.3,-5.25,-7.65,-7.53,0,*5D
1514754190.47,28528,7.44,73008.8,-5.25,-7.65,-7.53,0,*52
1514754191.71,28529,7.44,73006.0,-5.27,-7.65,-7.53,0,*51
1514754192.94,28530,7.5,73010.8,-5.25,-7.65,-7.53,0,*5B
1514754194.16,28531,7.44,73006.0,-5.25,-7.65,-7.53,0,*5A
1514754195.41,28532,7.44,73002.5,-5.27,-7.61,-7.49,0,*54
1514754196.65,28533,7.5,73002.3,-5.27,-7.65,-7.53,0,*5A
1514754197.9,28534,7.44,72998.8,-5.27,-7.65,-7.53,0,*5D
1514754199.15,28535,7.44,72998.8,-5.27,-7.65,-7.49,0,*57
1514754200.39,28536,7.44,72998.5,-5.27,-7.61,-7.49,0,*50
1514754201.64,28537,7.44,72996.8,-5.25,-7.61,-7.39,0,*54
1514754202.89,28538,7.5,73000.8,-5.27,-7.53,-7.39,0,*58
1514754204.14,28539,7.44,72998.0,-5.27,-7.53,-7.35,0,*55
1514754205.38,28540,7.5,72996.8,-5.27,-7.49,-7.35,0,*50
1514754206.63,28541,7.5,72994.0,-5.27,-7.49,-7.35,0,*51
1514754207.85,28542,7.44,72996.3,-5.25,-7.53,-7.39,0,*57
1514754209.13,28543,7.44,72990.0,-5.27,-7.61,-7.35,0,*59
1514754210.37,28544,7.44,72998.5,-5.27,-7.61,-7.49,0,*55
1514754211.62,28545,7.5,73006.0,-5.27,-7.65,-7.49,0,*50
1514754212.87,28546,7.44,73004.8,-5.27,-7.49,-7.39,0,*5A
1514754214.09,28547,7.44,72996.0,-5.25,-7.53,-7.27,0,*5D
1514754215.31,28548,7.44,72994.0,-5.27,-7.49,-7.23,0,*5F
1514754216.56,28549,7.44,72996.8,-5.27,-7.49,-7.27,0,*5A
1514754217.81,28550,7.44,72998.8,-5.27,-7.35,-7.23,0,*5D
1514754219.06,28551,7.5,73002.5,-5.27,-7.27,-7.15,0,*5A
1514754220.33,28552,7.44,72994.3,-5.27,-7.35,-7.27,0,*5B
1514754221.6,28553,7.44,72984.3,-5.27,-7.39,-7.27,0,*56
1514754222.85,28554,7.5,72982.3,-5.25,-7.39,-7.27,0,*53
1514754224.07,28555,7.44,72976.5,-5.25,-7.39,-7.23,0,*56
1514754225.31,28556,7.44,72978.0,-5.25,-7.39,-7.27,0,*51
1514754226.56,28557,7.44,72986.5,-5.25,-7.39,-7.27,0,*50
1514754227.8,28558,7.44,72992.5,-5.25,-7.39,-7.27,0,*5F
1514754229.02,28559,7.44,72998.3,-5.27,-7.49,-7.23,0,*5F
1514754230.27,28560,7.44,73000.8,-5.27,-7.49,-7.27,0,*51
1514754231.52,28561,7.44,73000.8,-5.27,-7.49,-7.27,0,*50
1514754232.76,28562,7.44,73002.5,-5.27,-7.53,-7.35,0,*5B
1514754234.01,28563,7.44,73004.3,-5.27,-7.53,-7.35,0,*5A
1514754235.26,28564,7.44,73002.5,-5.27,-7.65,-7.49,0,*53
1514754236.53,28565,7.44,73000.5,-5.27,-7.61,-7.39,0,*51
1514754237.81,28566,7.44,73004.8,-5.27,-7.61,-7.39,0,*52
1514754239.06,28567,7.44,73004.0,-5.25,-7.65,-7.39,0,*55
1514754240.33,28568,7.44,73006.3,-5.27,-7.61,-7.39,0,*5C
1514754241.56,28569,7.44,73004.3,-5.29,-7.65,-7.53,0,*5B
1514754242.78,28570,7.44,73002.8,-5.29,-7.65,-7.53,0,*53
1514754244.04,28571,7.44,73000.3,-5.29,-7.65,-7.43,0,*53
1514754245.29,28572,7.44,72996.0,-5.29,-7.69,-7.57,0,*59
1514754246.55,28573,7.44,73000.3,-5.29,-7.69,-7.57,0,*58
1514754247.77,28574,7.44,72996.0,-5.29,-7.69,-7.53,0,*5B
1514754249.0,28575,7.44,72998.8,-5.29,-7.53,-7.39,0,*5F
1514754250.23,28576,7.44,72998.8,-5.29,-7.53,-7.43,0,*51
1514754251.51,28577,7.44,72996.0,-5.31,-7.65,-7.43,0,*5C
1514754252.79,28578,7.5,73002.5,-5.31,-7.69,-7.43,0,*5F
1514754254.05,28579,7.44,73006.3,-5.29,-7.65,-7.43,0,*5B
1514754255.3,28580,7.44,73010.3,-5.29,-7.65,-7.43,0,*5D
1514754256.58,28581,7.44,73010.3,-5.31,-7.69,-7.43,0,*59
1514754257.86,28582,7.44,73010.0,-5.31,-7.65,-7.43,0,*56
1514754259.15,28583,7.44,73008.0,-5.31,-7.65,-7.43,0,*57
1514754260.4,28584,7.44,73006.3,-5.29,-7.57,-7.39,0,*55
1514754261.65,28585,7.44,73006.0,-5.31,-7.53,-7.31,0,*51
1514754262.91,28586,7.44,73006.8,-5.29,-7.43,-7.31,0,*5A
1514754264.16,28587,7.44,73006.0,-5.29,-7.43,-7.27,0,*5C
1514754265.44,28588,7.44,73004.0,-5.31,-7.43,-7.27,0,*5A
1514754266.67,28589,7.44,73000.3,-5.29,-7.53,-7.27,0,*53
1514754267.92,28590,7.44,73002.5,-5.31,-7.53,-7.31,0,*55
1514754269.17,28591,7.44,73002.0,-5.31,-7.53,-7.31,0,*54
1514754270.45,28592,7.44,73002.5,-5.31,-7.57,-7.39,0,*5B
1514754271.71,28593,7.44,72994.8,-5.29,-7.57,-7.39,0,*53
1514754272.96,28594,7.44,72994.0,-5.31,-7.53,-7.27,0,*56
1514754274.19,28595,7.44,72992.8,-5.29,-7.53,-7.31,0,*59
1514754275.44,28596,7.44,72990.3,-5.31,-7.53,-7.39,0,*5B
1514754276.68,28597,7.44,72988.0,-5.31,-7.39,-7.15,0,*58
1514754277.91,28598,7.44,72998.8,-5.29,-7.31,-7.15,0,*56
1514754279.16,28599,7.44,72996.8,-5.31,-7.31,-7.15,0,*5E
1514754280.41,28600,7.5,73006.0,-5.29,-7.43,-7.31,0,*57
1514754281.7,28601,7.5,73010.3,-5.31,-7.57,-7.31,0,*5A
1514754282.95,28602,7.44,73000.5,-5.29,-7.43,-7.27,0,*52
1514754284.17,28603,7.44,72998.8,-5.29,-7.39,-7.19,0,*53
1514754285.4,28604,7.44,72994.8,-5.29,-7.39,-7.15,0,*58
1514754286.64,28605,7.44,72994.8,-5.29,-7.31,-7.05,0,*50
1514754287.91,28606,7.44,72996.8,-5.27,-7.27,-7.01,0,*5E
1514754289.16,28607,7.44,73008.3,-5.27,-7.23,-6.97,0,*55
1514754290.38,28608,7.44,73006.8,-5.29,-7.39,-7.15,0,*54
1514754291.6,28609,7.44,73006.3,-5.29,-7.39,-7.15,0,*55
1514754292.83,28610,7.44,73002.3,-5.29,-7.39,-7.19,0,*51
1514754294.05,28611,7.44,73004.0,-5.29,-7.31,-7.19,0,*58
1514754295.28,28612,7.44,73010.0,-5.29,-7.39,-7.19,0,*53
1514754296.5,28613,7.44,73010.0,-5.27,-7.49,-7.15,0,*57
1514754297.74,28614,7.44,73006.5,-5.27,-7.49,-7.27,0,*51
1514754299.0,28615,7.44,72998.0,-5.29,-7.57,-7.31,0,*56
1514754300.28,28616,7.44,73004.8,-5.31,-7.43,-7.27,0,*5E
1514754301.51,28617,7.44,73008.3,-5.29,-7.53,-7.27,0,*57
1514754302.79,28618,7.5,73014.5,-5.31,-7.57,-7.27,0,*55
1514754304.05,28619,7.44,73010.8,-5.29,-7.57,-7.27,0,*5D
1514754305.31,28620,7.44,73008.3,-5.29,-7.57,-7.31,0,*50
1514754306.56,28621,7.44,72992.0,-5.29,-7.69,-7.39,0,*54
1514754307.81,28622,7.44,72994.3,-5.29,-7.65,-7.43,0,*56
1514754309.04,28623,7.44,72998.5,-5.29,-7.65,-7.53,0,*56
1514754310.32,28624,7.44,72996.3,-5.31,-7.65,-7.57,0,*5C
1514754311.54,28625,7.44,72996.5,-5.29,-7.69,-7.53,0,*5C
1514754312.79,28626,7.44,73002.3,-5.31,-7.69,-7.53,0,*56
1514754314.04,28627,7.44,73002.5,-5.29,-7.69,-7.57,0,*5A
1514754315.32,28628,7.44,73006.3,-5.31,-7.69,-7.57,0,*5C
1514754316.56,28629,7.44,73004.5,-5.31,-7.69,-7.53,0,*59
1514754317.84,28630,7.5,73006.8,-5.31,-7.69,-7.57,0,*55
1514754319.11,28631,7.44,73000.8,-5.31,-7.69,-7.57,0,*54
1514754320.39,28632,7.44,72998.5,-5.31,-7.69,-7.57,0,*57
1514754321.67,28633,7.44,72998.5,-5.31,-7.69,-7.65,0,*57
1514754322.94,28634,7.44,73000.0,-5.31,-7.69,-7.65,0,*50
1514754324.22,28635,7.44,73002.8,-5.31,-7.69,-7.65,0,*51
1514754325.43,28636,7.44,73000.0,-5.35,-7.83,-7.69,0,*5E
1514754326.71,28637,7.44,73006.5,-5.31,-7.77,-7.65,0,*5C
1514754327.93,28638,7.44,73004.0,-5.35,-7.83,-7.61,0,*58
1514754329.17,28639,7.44,73008.3,-5.33,-7.83,-7.69,0,*57
1514754330.39,28640,7.44,73004.0,-5.35,-7.87,-7.69,0,*5B
1514754331.64,28641,7.44,73006.5,-5.33,-7.83,-7.61,0,*50
1514754332.89,28642,7.44,73008.0,-5.33,-7.83,-7.61,0,*53
1514754334.13,28643,7.44,73002.3,-5.33,-7.83,-7.57,0,*57
1514754335.4,28644,7.44,73000.5,-5.33,-7.69,-7.57,0,*54
1514754336.68,28645,7.44,72996.8,-5.33,-7.73,-7.61,0,*5B
1514754337.95,28646,7.44,72992.3,-5.33,-7.73,-7.61,0,*58
1514754339.21,28647,7.44,72992.5,-5.35,-7.73,-7.61,0,*5F
1514754340.46,28648,7.44,72998.3,-5.35,-7.73,-7.61,0,*50
1514754341.68,28649,7.44,73000.0,-5.35,-7.69,-7.49,0,*50
1514754342.92,28650,7.44,73010.5,-5.33,-7.69,-7.49,0,*5E
1514754344.17,28651,7.5,73016.8,-5.35,-7.73,-7.57,0,*5D
1514754345.41,28652,7.44,73010.5,-5.33,-7.69,-7.49,0,*5C
1514754346.65,28653,7.44,73008.8,-5.33,-7.69,-7.49,0,*5D
1514754347.86,28654,7.44,73008.3,-5.35,-7.69,-7.49,0,*5C
1514754349.08,28655,7.44,73010.8,-5.35,-7.69,-7.49,0,*5D
1514754350.3,28656,7.44,73002.5,-5.35,-7.69,-7.49,0,*5E
1514754351.51,28657,7.44,73008.0,-5.35,-7.69,-7.49,0,*5F
1514754352.74,28658,7.44,73006.3,-5.35,-7.73,-7.49,0,*5B
1514754354.01,28659,7.44,73004.8,-5.33,-7.73,-7.57,0,*53
1514754355.26,28660,7.44,73012.8,-5.35,-7.73,-7.57,0,*5F
1514754356.49,28661,7.44,73008.8,-5.35,-7.73,-7.49,0,*51
1514754357.71,28662,7.44,73004.0,-5.35,-7.73,-7.49,0,*52
1514754358.93,28663,7.44,73000.3,-5.35,-7.73,-7.49,0,*53
1514754360.19,28664,7.44,72998.3,-5.35,-7.73,-7.43,0,*5E
1514754361.46,28665,7.44,72996.8,-5.33,-7.73,-7.57,0,*5C
1514754362.71,28666,7.44,72996.5,-5.35,-7.69,-7.57,0,*52
1514754363.93,28667,7.44,72990.0,-5.35,-7.73,-7.49,0,*57
1514754365.18,28668,7.44,72980.0,-5.35,-7.73,-7.57,0,*57
1514754366.43,28669,7.5,72980.0,-5.35,-7.73,-7.57,0,*56
1514754367.68,28670,7.44,72974.3,-5.35,-7.69,-7.43,0,*50
1514754368.92,28671,7.44,72976.5,-5.39,-7.61,-7.39,0,*58
1514754370.17,28672,7.44,72982.8,-5.35,-7.65,-7.35,0,*5F
1514754371.42,28673,7.44,72984.5,-5.35,-7.61,-7.35,0,*5A
1514754372.66,28674,7.5,72988.8,-5.35,-7.61,-7.31,0,*59
1514754373.91,28675,7.44,72988.3,-5.35,-7.57,-7.35,0,*59
1514754375.16,28676,7.44,72992.3,-5.35,-7.57,-7.31,0,*5E
1514754376.41,28677,7.44,72988.5,-5.35,-7.57,-7.35,0,*5B
1514754377.63,28678,7.44,72990.5,-5.35,-7.61,-7.49,0,*5A
1514754378.88,28679,7.44,72992.3,-5.35,-7.69,-7.43,0,*59
1514754380.09,28680,7.44,72990.8,-5.35,-7.69,-7.49,0,*55
1514754381.34,28681,7.44,72988.5,-5.35,-7.57,-7.35,0,*52
1514754382.59,28682,7.44,72984.5,-5.35,-7.69,-7.43,0,*5D
1514754383.84,28683,7.44,72984.0,-5.35,-7.57,-7.31,0,*54
1514754385.09,28684,7.44,72986.0,-5.39,-7.65,-7.35,0,*5A
1514754386.34,28685,7.5,72992.8,-5.35,-7.57,-7.31,0,*52
1514754387.55,28686,7.44,72992.3,-5.35,-7.49,-7.35,0,*5A
1514754388.77,28687,7.44,72976.3,-5.35,-7.49,-7.31,0,*5F
1514754390.04,28688,7.44,72978.0,-5.33,-7.57,-7.35,0,*5D
1514754391.29,28689,7.5,72980.5,-5.35,-7.57,-7.31,0,*5E
1514754392.54,28690,7.44,72986.8,-5.35,-7.57,-7.31,0,*56
1514754393.79,28691,7.44,72996.3,-5.35,-7.61,-7.43,0,*57
1514754395.04,28692,7.44,72990.0,-5.35,-7.69,-7.43,0,*5C
1514754396.25,28693,7.44,72992.8,-5.35,-7.69,-7.49,0,*57
1514754397.5,28694,7.44,72986.3,-5.35,-7.69,-7.43,0,*5A
1514754398.72,28695,7.44,72982.8,-5.35,-7.73,-7.49,0,*5A
1514754399.98,28696,7.44,72986.5,-5.35,-7.73,-7.61,0,*53
1514754401.23,28697,7.44,72982.0,-5.35,-7.73,-7.57,0,*57
1514754402.45,28698,7.44,72976.5,-5.35,-7.73,-7.49,0,*57
1514754403.67,28699,7.44,72978.8,-5.35,-7.73,-7.49,0,*56
1514754404.92,28700,7.44,72988.5,-5.35,-7.69,-7.57,0,*53
1514754406.16,28701,7.44,72980.0,-5.39,-7.77,-7.65,0,*50
1514754407.41,28702,7.44,72982.5,-5.39,-7.77,-7.61,0,*57
1514754408.66,28703,7.44,72986.8,-5.39,-7.77,-7.61,0,*56
1514754409.88,28704,7.44,72990.3,-5.39,-7.73,-7.53,0,*54
1514754411.09,28705,7.44,72994.3,-5.39,-7.77,-7.53,0,*51
1514754412.32,28706,7.44,72998.8,-5.39,-7.73,-7.53,0,*56
1514754413.56,28707,7.44,73000.8,-5.39,-7.77,-7.61,0,*52
1514754414.81,28708,7.44,73000.5,-5.39,-7.77,-7.65,0,*59
1514754416.06,28709,7.44,73004.0,-5.39,-7.77,-7.61,0,*5C
1514754417.3,28710,7.44,73006.8,-5.39,-7.77,-7.65,0,*50
1514754418.55,28711,7.44,73006.8,-5.39,-7.77,-7.65,0,*51
1514754419.79,28712,7.44,73006.5,-5.39,-7.77,-7.65,0,*52
1514754421.04,28713,7.44,73004.8,-5.41,-7.83,-7.65,0,*57
1514754422.29,28714,7.44,73000.3,-5.39,-7.77,-7.61,0,*50
1514754423.54,28715,7.44,72988.0,-5.39,-7.73,-7.61,0,*55
1514754424.79,28716,7.44,72976.3,-5.39,-7.77,-7.61,0,*52
1514754426.02,28717,7.44,72974.0,-5.39,-7.87,-7.61,0,*5C
1514754427.21,28718,7.44,72982.8,-5.39,-7.87,-7.53,0,*52
1514754428.46,28719,7.44,72980.5,-5.41,-7.83,-7.57,0,*5C
1514754429.71,28720,7.44,72990.5,-5.39,-7.73,-7.61,0,*53
1514754430.99,28721,7.44,72992.8,-5.41,-7.77,-7.57,0,*5C
1514754432.21,28722,7.44,72994.5,-5.39,-7.65,-7.49,0,*5C
1514754433.45,28723,7.5,73002.3,-5.41,-7.65,-7.53,0,*59
1514754434.67,28724,7.44,72996.8,-5.39,-7.65,-7.49,0,*5A
1514754435.89,28725,7.44,73004.0,-5.39,-7.65,-7.49,0,*5B
1514754437.11,28726,7.44,72996.5,-5.39,-7.77,-7.53,0,*50
1514754438.36,28727,7.44,72992.5,-5.39,-7.77,-7.61,0,*50
1514754439.61,28728,7.44,72992.3,-5.39,-7.73,-7.61,0,*5B
1514754440.86,28729,7.44,72986.3,-5.39,-7.77,-7.65,0,*5A
1514754442.13,28730,7.44,72982.0,-5.41,-7.95,-7.69,0,*5D
1514754443.38,28731,7.44,72992.0,-5.41,-7.99,-7.83,0,*54
1514754444.63,28732,7.44,72996.0,-5.41,-7.99,-7.83,0,*57
1514754445.91,28733,7.44,72998.3,-5.41,-7.95,-7.77,0,*51
1514754447.18,28734,7.44,73002.3,-5.41,-7.95,-7.77,0,*56
1514754448.43,28735,7.44,73008.3,-5.41,-7.91,-7.83,0,*58
1514754449.71,28736,7.44,73006.0,-5.41,-7.95,-7.77,0,*54
1514754450.96,28737,7.44,73006.3,-5.41,-7.91,-7.83,0,*5A
1514754452.21,28738,7.44,73010.5,-5.41,-7.95,-7.83,0,*51
1514754453.48,28739,7.44,73012.3,-5.41,-7.95,-7.77,0,*5B
1514754454.73,28740,7.44,73010.3,-5.43,-7.95,-7.77,0,*57
1514754455.96,28741,7.44,73006.5,-5.43,-8.07,-7.83,0,*59
1514754457.24,28742,7.44,73004.8,-5.45,-8.11,-7.99,0,*50
1514754458.49,28743,7.44,73004.3,-5.43,-8.07,-7.91,0,*58
1514754459.74,28744,7.44,73002.0,-5.43,-8.07,-7.91,0,*5F
1514754460.99,28745,7.44,73000.0,-5.43,-8.07,-7.91,0,*5E
1514754462.24,28746,7.44,73000.0,-5.43,-8.11,-7.91,0,*5A
1514754463.49,28747,7.44,72994.5,-5.45,-8.25,-7.99,0,*52
1514754464.74,28748,7.44,72998.8,-5.45,-8.17,-7.99,0,*5C
1514754466.01,28749,7.44,72998.0,-5.45,-8.11,-7.95,0,*57
1514754467.26,28750,7.44,73000.5,-5.45,-8.17,-7.95,0,*59
1514754468.51,28751,7.44,73000.8,-5.45,-8.17,-7.95,0,*58
1514754469.78,28752,7.44,73004.3,-5.45,-8.11,-7.95,0,*5D
1514754471.03,28753,7.44,72994.0,-5.45,-8.17,-7.99,0,*56
1514754472.28,28754,7.44,72998.8,-5.45,-8.17,-8.03,0,*5D
1514754473.53,28755,7.44,73008.3,-5.45,-8.17,-7.99,0,*50
1514754474.77,28756,7.44,73008.8,-5.45,-8.17,-7.95,0,*5F
1514754476.02,28757,7.44,72992.5,-5.45,-8.03,-7.87,0,*58
1514754477.3,28758,7.44,72998.0,-5.45,-8.11,-7.95,0,*57
1514754478.54,28759,7.44,72998.0,-5.45,-8.17,-7.95,0,*50
1514754479.79,28760,7.44,72994.8,-5.49,-8.21,-7.99,0,*5F
1514754481.06,28761,7.44,72992.8,-5.49,-8.07,-7.99,0,*5A
1514754482.31,28762,7.44,72998.3,-5.49,-8.17,-7.99,0,*58
1514754483.56,28763,7.44,72996.5,-5.49,-8.17,-7.99,0,*59
1514754484.8,28764,7.44,73002.3,-5.49,-8.17,-7.99,0,*5E
1514754486.05,28765,7.44,73006.3,-5.49,-8.17,-7.99,0,*5F
1514754487.29,28766,7.44,73000.3,-5.49,-8.21,-8.03,0,*55
1514754488.54,28767,7.44,73004.5,-5.45,-8.17,-7.99,0,*51
1514754489.82,28768,7.44,73002.3,-5.49,-8.07,-7.99,0,*53
1514754491.06,28769,7.44,73000.5,-5.49,-8.17,-7.99,0,*53
1514754492.31,28770,7.44,73000.3,-5.51,-8.07,-7.99,0,*53
1514754493.59,28771,7.44,73002.3,-5.49,-8.07,-7.99,0,*5B
1514754494.84,28772,7.44,73004.8,-5.49,-8.17,-7.99,0,*59
1514754496.08,28773,7.44,73000.8,-5.49,-8.17,-7.99,0,*58
1514754497.33,28774,7.44,73002.8,-5.49,-7.99,-7.87,0,*59
1514754498.6,28775,7.44,73008.8,-5.49,-8.03,-7.91,0,*53
1514754499.87,28776,7.44,73008.8,-5.49,-7.99,-7.77,0,*54
1514754501.14,28777,7.44,73014.8,-5.49,-7.99,-7.73,0,*51
1514754502.39,28778,7.44,73012.8,-5.49,-7.87,-7.61,0,*52
1514754503.64,28779,7.44,73010.0,-5.49,-7.87,-7.61,0,*53
1514754504.91,28780,7.44,73010.8,-5.49,-7.91,-7.77,0,*55
1514754506.16,28781,7.44,73004.5,-5.49,-7.77,-7.53,0,*5A
1514754507.42,28782,7.44,73004.0,-5.49,-7.91,-7.65,0,*54
1514754508.7,28783,7.44,73002.8,-5.49,-7.91,-7.73,0,*52
1514754509.97,28784,7.44,73000.3,-5.49,-7.99,-7.77,0,*59
1514754511.24,28785,7.44,72998.3,-5.49,-8.03,-7.77,0,*54
1514754512.48,28786,7.44,72992.8,-5.49,-8.03,-7.87,0,*58
1514754513.73,28787,7.44,72994.8,-5.51,-7.99,-7.77,0,*53
1514754515.0,28788,7.44,72990.3,-5.53,-8.03,-7.65,0,*51
1514754516.25,28789,7.44,72988.5,-5.51,-7.91,-7.61,0,*52
1514754517.52,28790,7.44,72994.5,-5.49,-7.99,-7.77,0,*5C
1514754518.77,28791,7.44,72994.8,-5.49,-8.03,-7.87,0,*5E
1514754520.04,28792,7.44,73002.5,-5.49,-7.99,-7.77,0,*5E
1514754521.31,28793,7.44,73002.8,-5.49,-7.99,-7.73,0,*5B
1514754522.59,28794,7.44,73012.5,-5.49,-7.99,-7.73,0,*5C
1514754523.86,28795,7.44,73018.5,-5.49,-7.91,-7.73,0,*55